CAPE
37 46 25 25 21 9 20 15 12 1 0 0 0 0 5 0 0 0 0 0 0 0 0 0 0 0 0 0 0 0 0 0 0 0 0 0 0 0 0 0 0 0 0 0 0
25 63 31 13 57 11 22 24 16 9 0 0 1 0 12 0 0 0 0 0 0 0 0 0 0 0 0 0 0 0 0 0 0 0 0 0 0 0 0 0 0 0 0 0 0
33 9 18 36 72 13 58 16 23 17 0 0 0 3 1 0 1 0 0 0 0 0 0 0 0 0 0 0 0 0 0 0 0 0 0 0 0 0 0 0 0 0 0 0 0
4 19 25 5 51 26 64 30 10 23 1 0 0 2 0 0 2 0 0 0 0 0 0 0 0 0 0 0 0 0 0 0 0 0 0 0 0 0 0 0 0 0 0 0 0
0 7 26 47 20 2 23 75 8 13 35 1 3 3 0 0 0 0 0 0 0 0 0 0 0 0 0 0 0 0 0 0 0 0 0 0 0 0 0 0 0 0 0 0 0
6 2 21 14 16 25 16 0 39 15 32 88 22 0 0 5 0 0 0 0 0 0 0 0 0 0 0 0 0 0 0 0 0 0 0 0 0 0 0 0 0 0 0 0 0
0 18 18 0 2 21 15 16 62 1 21 92 1 0 0 0 0 0 0 0 0 0 0 0 0 0 0 0 0 0 0 0 0 0 0 0 0 0 0 0 0 0 0 0 0
0 18 11 0 0 0 48 29 4 12 25 87 0 0 0 0 0 0 0 0 0 0 0 0 0 0 0 0 0 0 0 0 0 0 0 0 0 0 0 0 0 0 0 0 0
0 0 0 1 0 0 42 22 17 28 42 68 0 0 1 0 0 0 0 0 0 0 0 0 0 0 0 0 0 0 0 0 0 0 0 0 0 0 0 0 0 0 0 0 0
0 0 0 9 0 0 25 14 18 60 116 6 0 1 0 0 0 0 0 0 0 0 0 0 0 0 0 0 0 0 0 0 0 0 0 0 0 0 0 0 0 0 0 0 0
0 0 0 0 0 0 2 22 34 20 20 3 0 0 0 0 0 0 0 0 0 0 0 0 0 0 0 0 0 0 0 0 0 0 0 0 0 0 0 0 0 0 0 0 0
0 7 13 2 0 1 0 41 13 0 3 0 0 0 0 0 0 0 0 0 0 0 0 0 0 0 0 0 0 0 0 0 0 0 0 0 0 0 0 0 0 0 0 0 0
0 12 14 8 0 3 2 43 32 13 20 0 0 0 0 0 0 0 0 0 0 0 0 0 0 0 0 0 0 0 0 0 0 0 0 0 0 0 0 0 0 0 0 0 0
0 9 11 22 0 1 0 54 14 2 1 0 0 0 0 0 0 0 0 0 0 0 0 0 0 0 0 0 0 0 0 0 0 0 0 0 0 0 0 0 0 0 0 0 0
3 1 6 10 0 0 1 18 13 1 0 0 0 0 0 0 0 0 0 0 0 0 0 0 0 0 0 0 0 0 0 0 0 0 0 0 0 0 0 0 0 0 0 0 0
9 7 7 4 0 0 0 6 0 1 0 1 0 0 0 0 0 0 0 0 0 0 0 0 0 0 0 0 0 0 0 0 0 0 0 0 0 0 0 0 0 0 0 0 0
0 9 2 1 0 0 0 9 0 0 0 0 1 1 0 0 0 0 0 0 0 0 0 0 0 0 0 0 0 0 0 0 0 0 0 0 0 0 0 0 0 0 0 0 0
0 18 0 0 19 29 13 1 0 0 0 0 0 0 0 0 0 0 0 0 0 0 0 0 0 0 0 0 0 0 0 0 0 0 0 0 0 0 0 0 0 0 0 0 0
31 7 5 0 40 18 0 0 1 0 0 0 0 0 0 0 0 0 0 0 0 0 0 0 0 0 0 0 0 0 0 0 0 0 0 0 0 0 0 0 0 0 0 0 0
0 0 0 0 11 0 0 0 0 0 0 0 0 0 0 0 0 0 0 0 0 0 0 0 0 0 0 0 0 0 0 0 0 0 0 0 0 0 0 0 0 0 0 0 0
0 0 17 1 1 0 0 1 0 0 0 0 0 0 0 0 0 0 0 0 0 0 0 0 0 0 0 0 0 0 0 0 0 0 0 0 0 0 0 0 0 0 0 0 0
0 0 4 0 1 1 3 0 0 0 0 0 0 0 0 0 0 0 0 0 0 0 0 0 0 0 0 0 0 0 0 0 0 0 0 0 0 0 0 0 0 0 0 0 0
0 0 0 6 0 0 0 0 0 0 0 0 0 0 0 0 0 0 0 0 0 0 0 0 0 0 0 0 0 0 0 0 0 0 0 0 0 0 0 0 0 0 0 0 0
0 0 0 0 0 0 0 0 0 0 0 0 0 0 0 0 0 0 0 0 0 0 0 0 0 0 0 0 0 0 0 0 0 0 0 0 0 0 0 0 0 0 0 0 0
0 0 0 0 0 0 0 0 0 0 0 0 0 0 0 0 0 0 0 0 0 0 0 0 0 0 0 0 0 0 0 0 0 0 0 0 0 0 0 0 0 0 0 0 0
0 0 0 0 0 0 0 0 0 0 0 0 0 0 0 0 0 0 0 0 0 0 0 0 0 0 0 0 0 0 0 0 0 0 0 0 0 0 0 0 0 0 0 0 0
2 1 0 0 1 0 0 0 0 0 0 0 0 0 0 0 0 0 0 0 0 0 0 0 0 0 0 0 0 0 0 0 0 0 0 0 0 0 0 0 0 0 0 0 0
CIN
-3 -2 -15 -3 -0 -8 -1 -1 -3 -13 -0 -0 -0 -0 -1 -0 -0 -0 -0 -0 -0 -0 -0 -0 -0 -0 -0 -0 -0 -0 -0 -0 -0 -0 -0 -0 -0 -0 -0 -0 -0 -0 -0 -0 -0
-10 -4 -0 -26 -6 -6 -2 -4 -1 -1 -0 -0 -0 -0 -5 -0 -0 -0 -0 -0 -0 -0 -0 -0 -0 -0 -0 -0 -0 -0 -0 -0 -0 -0 -0 -0 -0 -0 -0 -0 -0 -0 -0 -0 -0
-4 -11 -7 -0 -2 -5 -0 -8 -2 -1 -0 -0 -0 -0 -1 -0 -1 -0 -0 -0 -0 -0 -0 -0 -0 -0 -0 -0 -0 -0 -0 -0 -0 -0 -0 -0 -0 -0 -0 -0 -0 -0 -0 -0 -0
-8 -19 -3 -9 -1 -2 -0 -2 -13 -1 -2 -0 -0 -0 -0 -0 -0 -0 -0 -0 -0 -0 -0 -0 -0 -0 -0 -0 -0 -0 -0 -0 -0 -0 -0 -0 -0 -0 -0 -0 -0 -0 -0 -0 -0
-0 -28 -5 -0 -0 -8 -0 -0 -5 -6 -4 -12 -14 -37 -0 -0 -0 -0 -0 -0 -0 -0 -0 -0 -0 -0 -0 -0 -0 -0 -0 -0 -0 -0 -0 -0 -0 -0 -0 -0 -0 -0 -0 -0 -0
-18 -21 -21 -11 -3 -4 -0 -0 -1 -18 -1 -0 -7 -0 -0 -2 -0 -0 -0 -0 -0 -0 -0 -0 -0 -0 -0 -0 -0 -0 -0 -0 -0 -0 -0 -0 -0 -0 -0 -0 -0 -0 -0 -0 -0
-0 -14 -35 -3 -26 -2 -0 -1 -0 -11 -11 -0 -19 -0 -0 -0 -0 -0 -0 -0 -0 -0 -0 -0 -0 -0 -0 -0 -0 -0 -0 -0 -0 -0 -0 -0 -0 -0 -0 -0 -0 -0 -0 -0 -0
-0 -2 -22 -16 -0 -0 -0 -0 -3 -14 -11 -0 -0 -0 -4 -0 -0 -0 -0 -0 -0 -0 -0 -0 -0 -0 -0 -0 -0 -0 -0 -0 -0 -0 -0 -0 -0 -0 -0 -0 -0 -0 -0 -0 -0
-0 -0 -0 -3 -0 -0 -2 -0 -0 -11 -5 -2 -0 -0 -12 -0 -0 -0 -0 -0 -0 -0 -0 -0 -0 -0 -0 -0 -0 -0 -0 -0 -0 -0 -0 -0 -0 -0 -0 -0 -0 -0 -0 -0 -0
-0 -0 -0 -0 -0 -0 -1 -2 -0 -13 -1 -11 -0 -23 -0 -0 -0 -0 -0 -0 -0 -0 -0 -0 -0 -0 -0 -0 -0 -0 -0 -0 -0 -0 -0 -0 -0 -0 -0 -0 -0 -0 -0 -0 -0
-0 -0 -0 -0 -0 -0 -0 -0 -0 -1 -46 -37 -0 -0 -0 -0 -0 -0 -0 -0 -0 -0 -0 -0 -0 -0 -0 -0 -0 -0 -0 -0 -0 -0 -0 -0 -0 -0 -0 -0 -0 -0 -0 -0 -0
-0 -0 -2 -0 -12 -0 -0 -0 -9 -0 -13 -0 -0 -0 -0 -0 -0 -0 -0 -0 -0 -0 -0 -0 -0 -0 -0 -0 -0 -0 -0 -0 -0 -0 -0 -0 -0 -0 -0 -0 -0 -0 -0 -0 -0
-0 -0 -2 -5 -0 -9 -0 -1 -24 -30 -12 -0 -0 -0 -0 -0 -0 -0 -0 -0 -0 -0 -0 -0 -0 -0 -0 -0 -0 -0 -0 -0 -0 -0 -0 -0 -0 -0 -0 -0 -0 -0 -0 -0 -0
-0 -0 -5 -3 -0 -19 -0 -0 -21 -37 -0 -0 -0 -0 -0 -0 -0 -0 -0 -0 -0 -0 -0 -0 -0 -0 -0 -0 -0 -0 -0 -0 -0 -0 -0 -0 -0 -0 -0 -0 -0 -0 -0 -0 -0
-0 -0 -4 -8 -0 -0 -1 -2 -22 -13 -0 -0 -0 -0 -0 -0 -0 -0 -0 -0 -0 -0 -0 -0 -0 -0 -0 -0 -0 -0 -0 -0 -0 -0 -0 -0 -0 -0 -0 -0 -0 -0 -0 -0 -0
-1 -1 -1 -3 -0 -0 -0 -7 -1 -4 -0 -0 -0 -0 -0 -0 -0 -0 -0 -0 -0 -0 -0 -0 -0 -0 -0 -0 -0 -0 -0 -0 -0 -0 -0 -0 -0 -0 -0 -0 -0 -0 -0 -0 -0
-0 -0 -0 -7 -0 -0 -5 -0 -0 -1 -0 -0 -0 -0 -0 -0 -0 -0 -0 -0 -0 -0 -0 -0 -0 -0 -0 -0 -0 -0 -0 -0 -0 -0 -0 -0 -0 -0 -0 -0 -0 -0 -0 -0 -0
-0 -0 -0 -0 -3 -2 -0 -0 -0 -0 -0 -0 -0 -0 -0 -0 -0 -0 -0 -0 -0 -0 -0 -0 -0 -0 -0 -0 -0 -0 -0 -0 -0 -0 -0 -0 -0 -0 -0 -0 -0 -0 -0 -0 -0
-0 -1 -1 -0 -2 -1 -0 -0 -1 -0 -0 -0 -0 -0 -0 -0 -0 -0 -0 -0 -0 -0 -0 -0 -0 -0 -0 -0 -0 -0 -0 -0 -0 -0 -0 -0 -0 -0 -0 -0 -0 -0 -0 -0 -0
-0 -0 -0 -0 -4 -0 -0 -0 -0 -0 -0 -0 -0 -0 -0 -0 -0 -0 -0 -0 -0 -0 -0 -0 -0 -0 -0 -0 -0 -0 -0 -0 -0 -0 -0 -0 -0 -0 -0 -0 -0 -0 -0 -0 -0
-0 -0 -1 -13 -17 -0 -0 -0 -0 -0 -0 -0 -0 -0 -0 -0 -0 -0 -0 -0 -0 -0 -0 -0 -0 -0 -0 -0 -0 -0 -0 -0 -0 -0 -0 -0 -0 -0 -0 -0 -0 -0 -0 -0 -0
-0 -0 -6 -0 -11 -22 -1 -0 -0 -0 -0 -0 -0 -0 -0 -0 -0 -0 -0 -0 -0 -0 -0 -0 -0 -0 -0 -0 -0 -0 -0 -0 -0 -0 -0 -0 -0 -0 -0 -0 -0 -0 -0 -0 -0
-0 -0 -0 -0 -0 -0 -0 -0 -0 -0 -0 -0 -0 -0 -0 -0 -0 -0 -0 -0 -0 -0 -0 -0 -0 -0 -0 -0 -0 -0 -0 -0 -0 -0 -0 -0 -0 -0 -0 -0 -0 -0 -0 -0 -0
-0 -0 -0 -0 -0 -0 -0 -0 -0 -0 -0 -0 -0 -0 -0 -0 -0 -0 -0 -0 -0 -0 -0 -0 -0 -0 -0 -0 -0 -0 -0 -0 -0 -0 -0 -0 -0 -0 -0 -0 -0 -0 -0 -0 -0
-0 -1 -0 -0 -0 -0 -0 -0 -0 -0 -0 -0 -0 -0 -0 -0 -0 -0 -0 -0 -0 -0 -0 -0 -0 -0 -0 -0 -0 -0 -0 -0 -0 -0 -0 -0 -0 -0 -0 -0 -0 -0 -0 -0 -0
-0 -0 -0 -0 -0 -0 -0 -0 -0 -0 -0 -0 -0 -0 -0 -0 -0 -0 -0 -0 -0 -0 -0 -0 -0 -0 -0 -0 -0 -0 -0 -0 -0 -0 -0 -0 -0 -0 -0 -0 -0 -0 -0 -0 -0
-0 -0 -0 -0 -0 -0 -0 -0 -0 -0 -0 -0 -0 -0 -0 -0 -0 -0 -0 -0 -0 -0 -0 -0 -0 -0 -0 -0 -0 -0 -0 -0 -0 -0 -0 -0 -0 -0 -0 -0 -0 -0 -0 -0 -0
Wind_Speed
39 34 33 37 39 40 43 42 41 37 34 29 31 32 29 25 25 27 33 26 20 17 16 15 17 16 16 16 16 15 20 22 22 19 20 15 13 15 16 12 16 14 15 13 4
39 41 39 40 41 40 43 42 42 39 37 32 30 26 27 25 28 36 27 24 20 20 20 20 20 19 19 19 18 20 22 23 20 20 19 19 18 12 14 15 15 16 17 11 4
36 38 34 36 39 40 41 41 43 40 39 36 38 28 26 22 30 38 29 28 23 20 20 18 19 21 21 20 20 20 24 22 21 21 20 20 22 18 15 16 16 11 9 5 2
35 34 43 39 40 40 38 40 43 42 40 35 35 28 17 21 36 24 28 29 27 22 20 21 21 23 25 25 22 24 24 21 21 19 20 21 19 22 20 20 21 19 7 2 4
30 33 31 40 38 41 39 41 42 44 41 40 35 26 22 30 31 19 19 22 23 22 24 24 23 22 24 25 25 28 25 23 23 24 23 22 25 24 26 23 21 14 9 6 4
30 30 33 34 34 39 40 38 41 43 41 37 33 29 30 39 28 21 15 16 23 24 24 22 25 24 22 25 23 24 24 23 23 24 23 25 25 22 24 21 20 15 12 9 5
28 31 35 32 33 37 40 38 42 41 40 36 33 35 38 40 25 25 21 19 19 25 26 26 22 23 21 23 23 20 24 25 26 24 24 22 29 28 24 19 20 19 18 14 10
28 31 33 35 34 36 43 41 43 40 36 33 30 35 45 31 24 24 22 23 16 17 22 22 22 23 26 21 22 25 25 27 25 22 25 23 34 29 23 22 21 20 20 17 14
27 30 32 35 33 37 41 43 41 38 34 29 32 35 44 26 31 25 22 24 21 20 20 20 20 25 26 24 23 23 25 26 25 20 23 26 30 27 21 22 25 22 21 20 19
30 32 32 33 32 34 39 38 36 34 33 28 32 38 39 44 32 25 21 19 22 21 21 25 27 29 30 26 29 23 25 23 23 21 22 28 35 31 25 27 27 25 23 22 22
33 34 35 35 30 33 34 35 35 34 40 43 46 47 39 30 25 27 22 22 22 26 32 30 31 34 28 28 25 25 28 28 26 25 28 30 34 34 30 26 26 29 25 25 24
30 32 33 34 34 39 40 45 38 32 41 37 38 42 32 29 35 30 23 29 31 34 28 32 41 31 26 26 28 28 28 30 29 26 28 33 37 31 29 31 30 27 27 26 28
31 31 30 30 32 35 36 43 34 26 34 34 38 42 37 33 39 37 31 30 35 35 35 38 35 28 29 31 30 30 30 29 29 25 26 31 39 29 35 29 30 29 29 27 27
30 30 31 26 33 34 37 39 32 29 34 38 41 37 37 32 36 31 29 27 33 38 34 35 30 32 32 34 29 33 27 27 27 28 33 25 42 31 27 21 27 25 23 28 31
29 28 31 31 31 37 32 37 34 30 47 33 38 26 35 40 34 38 28 29 36 33 33 38 32 31 35 33 26 31 23 25 25 28 31 30 36 35 30 31 31 21 20 20 21
30 29 30 32 36 37 33 38 31 45 48 32 33 38 37 36 34 33 31 25 26 30 32 30 27 29 33 26 25 19 20 22 24 27 40 31 32 37 28 26 24 20 18 21 22
30 30 31 36 37 30 30 33 44 58 30 34 38 41 40 37 35 40 40 37 37 39 39 34 31 28 24 27 25 25 24 29 33 33 36 25 29 40 27 26 19 19 20 20 16
30 30 31 37 35 30 29 39 52 52 42 28 32 39 41 39 37 38 42 44 38 34 35 40 44 31 28 29 30 28 27 28 35 37 36 27 36 31 22 30 28 22 20 19 14
27 30 35 36 34 27 33 46 49 50 43 36 31 41 38 39 35 39 42 47 41 36 37 42 39 31 28 25 23 28 31 24 25 27 34 33 35 36 36 36 30 27 25 17 17
28 32 38 33 34 30 36 48 42 38 36 39 41 41 42 44 39 42 45 46 42 37 31 30 37 28 28 23 25 29 24 29 31 35 40 37 38 34 27 28 27 28 24 23 18
26 33 29 23 28 34 44 41 41 39 36 39 42 39 39 43 38 42 43 32 41 36 32 25 30 32 25 33 32 28 31 30 27 31 35 39 35 28 26 28 28 23 18 15 16
27 36 22 21 38 35 42 39 36 42 36 35 36 38 40 40 39 40 45 39 36 35 37 29 25 32 35 28 27 31 33 32 36 36 38 36 42 21 15 20 22 18 17 12 13
30 29 21 24 41 42 36 38 36 45 40 36 41 37 35 37 39 41 44 40 29 37 40 32 32 32 31 34 30 35 33 34 33 30 38 37 41 25 28 26 21 17 15 14 12
27 35 28 29 34 34 39 40 38 46 42 36 34 32 33 38 40 44 42 42 39 34 34 34 34 38 40 38 30 35 36 33 35 41 39 38 38 29 23 20 19 17 14 12 11
25 30 31 41 41 35 36 37 39 43 38 36 37 36 34 37 43 40 39 39 41 39 35 34 45 41 40 36 33 36 35 36 38 37 39 47 41 37 31 23 18 17 15 16 16
26 25 27 35 30 33 32 35 42 42 42 45 41 36 33 36 36 38 31 38 40 36 38 35 37 40 43 37 35 38 36 36 37 38 41 49 46 33 30 29 29 30 27 28 25
22 19 25 31 34 33 33 32 38 40 45 47 36 34 36 34 30 31 29 31 34 38 38 39 36 34 43 34 35 44 37 37 41 40 41 44 44 39 36 33 35 42 39 36 31
Wind_Direction
256 254 253 250 249 248 239 236 233 231 234 239 235 237 241 242 247 246 239 245 251 252 262 266 266 268 274 275 276 276 269 271 273 274 269 273 265 263 266 278 270 274 281 295 90
252 250 253 250 249 249 240 236 232 230 231 233 233 235 241 242 245 241 243 240 245 252 257 255 254 260 264 267 272 266 264 268 277 274 272 266 262 263 270 272 278 276 275 299 101
260 257 254 250 248 246 240 236 233 229 230 230 226 234 232 241 243 241 242 241 244 250 255 261 258 258 262 264 269 267 264 271 277 274 273 269 263 264 267 273 276 285 283 294 132
255 258 245 248 248 243 244 237 234 231 228 228 228 232 236 242 236 244 241 238 241 247 250 249 256 256 258 257 263 266 268 273 277 279 277 271 272 264 265 270 277 275 280 269 168
266 254 258 246 249 243 243 237 234 232 228 228 226 225 229 236 238 250 248 236 236 241 245 247 253 256 258 261 261 264 271 269 273 275 275 277 269 268 263 267 276 277 279 264 225
262 257 253 250 247 242 242 242 234 231 230 225 224 219 235 240 248 250 255 238 236 240 245 247 253 252 265 263 262 270 268 271 271 273 277 273 274 271 269 266 272 273 273 269 238
265 255 250 253 250 246 241 241 235 230 230 227 223 226 238 239 254 245 246 249 242 241 243 246 253 247 259 261 264 273 272 272 270 274 274 279 269 267 268 268 269 270 270 272 265
262 256 254 250 247 249 238 241 238 228 226 225 219 232 238 248 254 245 244 244 243 247 244 248 248 252 257 261 265 265 269 272 277 276 272 276 265 271 270 265 267 269 270 269 267
263 257 254 248 247 248 238 236 236 223 220 218 222 233 236 244 242 242 242 234 235 245 245 248 247 249 253 252 259 262 267 267 277 273 276 271 272 271 273 268 265 268 268 267 268
259 257 253 252 249 248 237 231 228 217 217 220 234 233 238 234 233 237 241 223 231 231 241 241 245 245 248 246 249 256 262 273 275 280 279 278 269 270 271 265 265 267 267 267 266
256 254 252 244 251 248 238 231 213 215 219 221 223 228 228 232 226 233 227 223 229 231 235 237 238 240 241 244 257 262 264 271 278 280 282 279 274 269 270 270 267 265 267 266 265
253 251 247 243 242 236 236 227 214 215 215 224 230 231 232 225 225 224 215 225 225 228 233 236 238 243 242 249 252 259 266 270 279 284 280 279 275 276 271 269 267 268 266 266 267
251 250 245 246 242 235 240 224 212 206 224 227 227 227 224 224 224 219 217 228 224 229 231 236 243 242 244 248 251 259 264 271 275 283 284 284 278 276 267 273 272 269 269 270 268
248 248 242 245 239 230 236 223 205 215 229 227 224 231 227 216 227 224 220 224 231 230 232 243 247 238 244 248 250 255 265 270 274 278 277 286 275 281 272 245 272 270 266 266 267
244 247 244 239 238 229 229 219 212 216 230 223 220 232 229 215 215 220 225 234 225 228 232 238 236 238 242 245 247 258 262 268 275 278 280 279 280 280 279 275 273 263 254 244 244
242 246 241 240 240 235 239 218 209 218 233 226 218 218 218 219 218 212 222 235 232 232 237 242 248 242 245 247 244 251 260 269 276 278 271 275 275 280 283 285 282 272 261 239 235
242 242 242 230 234 235 236 224 216 220 218 221 214 208 209 215 213 207 216 221 223 225 230 239 243 246 243 239 245 244 247 260 265 265 269 287 279 274 288 295 303 294 285 280 275
240 243 246 231 236 234 234 223 224 215 215 220 209 200 213 210 218 212 215 222 231 233 229 233 241 238 241 243 241 238 244 255 264 266 273 280 275 285 297 292 294 294 290 293 293
240 245 240 237 234 233 231 228 227 211 214 210 200 202 215 213 217 216 219 224 226 228 236 234 243 244 243 245 234 245 244 251 272 280 277 275 281 287 288 290 292 291 287 283 288
237 242 240 237 227 223 232 231 230 214 208 201 210 212 211 207 215 217 220 227 227 227 239 242 241 250 243 242 248 246 237 249 259 268 270 276 279 278 291 302 304 295 285 292 285
237 236 244 228 217 226 229 235 230 217 204 210 215 217 220 210 217 216 222 238 224 224 236 235 245 244 239 242 237 241 240 252 257 264 270 275 281 293 288 297 302 310 301 292 292
234 227 234 235 225 228 233 236 233 215 215 221 221 224 217 212 220 221 227 225 223 221 226 236 246 244 241 254 249 247 249 243 253 261 263 273 273 294 307 314 315 310 313 306 301
230 235 253 238 221 227 234 234 234 214 212 217 221 225 220 218 226 229 229 230 227 220 222 227 242 244 247 253 251 245 250 245 254 264 261 265 274 279 277 297 315 322 317 311 303
232 229 238 237 236 234 230 234 229 217 219 222 221 220 216 225 231 230 231 229 228 229 229 229 245 244 244 253 248 251 247 249 250 256 262 259 266 279 282 299 301 306 310 312 314
236 235 235 226 226 231 229 233 224 216 224 221 220 218 221 227 226 234 231 230 230 232 234 235 240 247 252 257 254 255 251 248 248 247 255 244 268 268 273 281 292 292 300 307 307
235 241 237 228 227 224 231 228 219 216 217 217 216 216 221 227 224 224 224 228 228 230 230 238 245 245 252 257 257 255 254 248 243 250 257 264 269 277 268 274 275 275 279 289 289
246 253 241 229 226 227 233 230 220 219 223 221 220 216 223 231 230 233 237 235 234 229 233 234 241 247 251 255 257 257 243 248 255 254 255 257 268 270 273 272 273 272 276 277 280